#timestamp,LO_Frequency,Hit,StdDev 
1512709215.5,286046997.1,P
1512709235.3,286046997.2,P
1512709255.1,286046997.5,Y
1512709275.9,286046998.5,P
1512709295.7,286047001.2,N
1512709315.6,286046999.2,N
1512709335.4,286046996.7,N
1512709355.2,286047001.1,N
1512709375.1,286046997.1,N
1512709376.0,286046997.1,N
1512709395.8,286046997.0,N
1512709415.7,286046997.0,N
1512709435.5,286046998.4,N
1512709455.3,286046999.0,N
1512709475.2,286046999.2,N
1512709495.0,286046996.7,N
1512709495.9,286046996.7,N
1512709515.8,286046997.8,N
1512709535.6,286046996.9,N
1512709555.4,286046996.9,N
1512709575.3,286046999.6,N
1512709595.1,286046997.8,N
1512709615.8,286046997.8,N
1512709635.7,286046997.4,N
1512709655.5,286046997.8,N
1512709675.4,286046994.9,Y
1512709695.2,286046999.4,P
1512709715.0,286046998.5,N
1512709715.9,286046998.5,N
1512709735.8,286046999.4,N
1512709755.6,286046998.4,N
1512709775.4,286046998.6,N
1512709795.3,286046999.0,N
1512709815.1,286046998.2,Y
1512709835.9,286047000.3,P
1512709855.7,286047002.4,P
1512709875.5,286047001.9,N
1512709895.4,286047002.5,N
1512709915.2,286046998.1,N
1512709935.1,286046998.7,N
1512709936.0,286046998.7,N
1512709955.8,286046998.7,N
1512709975.6,286046998.3,N
1512709995.5,286047000.0,N
1512710015.3,286047001.1,N
1512710035.1,286047000.4,N
1512710055.9,286046998.3,N
1512710075.7,286046998.5,N
1512710095.6,286047000.8,N
1512710115.4,286047001.2,N
1512710135.2,286046998.6,N
1512710155.1,286046998.3,N
1512710156.0,286046998.3,N
1512710175.8,286046998.6,N
1512710195.6,286047001.0,N
1512710215.5,286047002.4,N
1512710235.3,286047002.8,N
1512710255.2,286046999.9,N
1512710275.9,286047000.3,N
1512710295.7,286047002.7,N
1512710315.6,286047000.7,N
1512710335.4,286046998.1,N
1512710355.2,286047001.2,N
1512710375.1,286047000.4,N
1512710376.0,286047000.4,N
1512710395.8,286047001.2,N
1512710415.7,286047001.0,N
1512710435.5,286046998.3,N
1512710455.3,286046998.3,N
1512710475.2,286046998.1,N
1512710495.0,286047002.8,N
1512710495.9,286047002.8,N
1512710515.8,286047002.3,N
1512710535.6,286047002.6,N
1512710555.4,286047003.7,N
1512710575.3,286047004.1,N
1512710595.1,286047003.8,N
1512710615.8,286047001.8,N
1512710635.7,286047004.4,N
1512710655.5,286047002.7,N
1512710675.4,286047002.0,N
1512710695.2,286047002.4,N
1512710715.0,286046998.3,N
1512710715.9,286046998.3,N
1512710735.8,286046998.1,N
1512710755.6,286046999.3,N
1512710775.4,286046998.3,N
1512710795.3,286046999.4,N
1512710815.1,286046998.8,N
1512710835.9,286046998.8,N
1512710855.7,286046996.6,N
1512710875.5,286046999.1,N
1512710895.4,286046998.4,N
1512710915.2,286047000.2,N
1512710935.0,286047002.4,N
1512710936.0,286047002.4,N
1512710955.8,286047002.0,N
1512710975.6,286047002.1,N
1512710995.5,286047000.5,N
1512711015.3,286046999.9,N
1512711035.1,286047002.2,N
1512711055.9,286046999.8,N
1512711075.7,286046998.5,N
1512711095.6,286047000.7,N
1512711115.4,286046998.1,N
1512711135.2,286047001.2,N
1512711155.1,286047001.2,N
1512711156.0,286047001.2,N
1512711175.8,286047000.7,N
1512711195.6,286047001.2,N
1512711215.5,286046998.6,N
1512711235.3,286046999.4,N
1512711255.2,286046996.9,N
1512711275.9,286046998.3,N
1512711295.7,286046998.8,N
1512711315.6,286047000.8,N
1512711335.4,286046996.8,N
1512711355.2,286047000.8,N
1512711375.1,286046998.5,N
1512711376.0,286046998.5,N
1512711395.8,286046998.3,N
1512711415.7,286046999.5,N
1512711435.5,286047000.8,N
1512711455.3,286047000.8,N
1512711475.2,286046998.1,N
1512711495.0,286047000.8,N
1512711495.9,286047000.8,N
1512711515.8,286047000.6,N
1512711535.6,286047000.6,N
1512711555.4,286046999.0,N
1512711575.3,286047000.8,N
1512711595.1,286046998.9,N
1512711615.9,286046998.9,N
1512711635.7,286046996.8,N
1512711655.5,286046997.1,N
1512711675.4,286046999.5,N
1512711695.2,286047000.8,N
1512711715.0,286047001.1,N
1512711715.9,286047001.1,N
1512711735.8,286046998.3,N
1512711755.6,286046999.0,N
1512711775.5,286046999.4,N
1512711795.3,286046998.7,N
1512711815.1,286047001.0,N
1512711835.9,286047000.7,N
1512711855.7,286046998.6,N
1512711875.5,286046996.7,N
1512711895.4,286046997.1,N
1512711915.2,286046999.1,N
1512711935.1,286046998.8,N
1512711936.0,286046998.8,N
1512711955.8,286047001.1,N
1512711975.6,286046999.2,N
1512711995.5,286046998.4,N
1512712015.3,286046998.2,N
1512712035.1,286046999.0,N
1512712055.9,286047001.1,N
1512712075.7,286047000.3,N
1512712095.6,286046998.3,N
1512712115.4,286046998.4,N
1512712135.2,286046998.6,N
1512712185.1,286046999.0,E
1512712195.0,286047001.2,N
1512712195.9,286047001.2,P
1512712215.8,286047000.8,P
1512712235.6,286046998.6,Y
1512712255.4,286046999.6,P
1512712275.3,286046996.5,P
1512712295.1,286047000.7,N
1512712315.9,286046998.6,N
1512712335.7,286046999.7,N
1512712355.5,286047000.7,N
1512712375.4,286047000.4,N
1512712395.2,286047004.4,Y
1512712415.1,286047003.9,P
1512712416.0,286047003.9,N
1512712435.8,286047004.0,N
1512712455.6,286047003.1,N
1512712475.5,286047000.2,N
1512712495.3,286047000.1,N
1512712515.2,286047000.7,N
1512712535.0,286046999.8,N
1512712535.9,286046999.8,N
1512712555.7,286047002.6,N
1512712575.6,286047002.8,N
1512712595.4,286047001.6,N
1512712615.3,286047002.6,N
1512712635.1,286047004.0,N
1512712636.0,286047004.0,N
1512712655.8,286047002.1,N
1512712675.7,286047000.9,N
1512712695.5,286047001.2,N
1512712715.3,286046999.2,N
1512712735.2,286046999.1,N
1512712755.0,286046998.2,N
1512712755.9,286046998.2,N
1512712775.8,286046998.6,N
1512712795.6,286047000.8,N
